Home > Weather > Santiago de Cuba > Past weeks

Flag for Cuba Weather for the Past 2 Weeks in Santiago de Cuba, Cuba

Now
72 °F

Passing clouds.


Feels Like: 72 °F
Forecast: 70 / 82 °F
Wind: 14 mph from Northeast

Location: Santiago De Cuba - Oriente

Current Time: Feb 13, 2016 at 8:51:25 PM

Latest Report: Feb 13, 2016 at 7:50 PM


Visibility: 6 mi

Pressure: 30.07 "Hg

Humidity: 78%

Dew point: 64 °F

Location of Santiago de CubaLocation

Historic Weather in Santiago de Cuba — Graph

°F

Santiago de Cuba Temperature Yesterday

Maximum temperature yesterday: 82 °F (at 10:50 AM)
Minimum temperature yesterday: 72 °F (at 12:50 AM)
Average temperature yesterday: 74 °F

High & Low Weather Summary for the Past Weeks

 TemperatureHumidityPressure
High84 °F (Jan 30, 12:51 PM)100% (Feb 8, 11:51 PM)30.15 "Hg (Feb 8, 11:51 PM)
Low66 °F (Feb 5, 6:51 AM)40% (Feb 5, 1:50 PM)29.95 "Hg (Feb 2, 2:50 AM)
Average75 °F74%30.04 "Hg
* Reported Jan 29 6:51 PM — Feb 13 6:51 PM, Santiago de Cuba, Weather by CustomWeather, © 2016

Note: Actual official high and low records may vary slightly from our data, if they occured in-between our weather recording intervals... More about our weather records

Advertising

Santiago de Cuba Weather History for the Previous 24 Hours

 ConditionsComfort  
Time TempWeatherWind HumidityBarometerVisibility
6:51 PM
Sat, Feb 13
73 °FPassing clouds.17 mph74%30.04 "Hg6 mi
5:52 PM75 °FBroken clouds.13 mph74%30.04 "Hg6 mi
4:51 PM77 °FScattered clouds.14 mph65%30.04 "Hg6 mi
3:50 PM81 °FScattered clouds.9 mph62%30.01 "Hg6 mi
2:50 PM81 °FScattered clouds.12 mph62%30.01 "Hg6 mi
1:50 PM75 °FScattered clouds.12 mph69%30.01 "Hg6 mi
12:51 PM82 °FScattered clouds.8 mph62%30.04 "Hg6 mi
11:51 AM79 °FPartly sunny.13 mph70%30.07 "Hg6 mi
10:50 AM77 °FPartly sunny.12 mph74%30.09 "Hg6 mi
9:50 AM77 °FPartly sunny.9 mph74%30.09 "Hg6 mi
8:50 AM73 °FPartly sunny.10 mph89%30.09 "Hg6 mi
7:53 AM72 °FPartly sunny.7 mph94%30.07 "Hg6 mi
6:50 AM72 °FPartly sunny.9 mph94%30.07 "Hg5 mi
5:51 AM72 °FPassing clouds.8 mph94%30.04 "Hg5 mi
4:50 AM72 °FPassing clouds.7 mph94%30.01 "Hg6 mi
3:51 AM70 °FPassing clouds.7 mph100%30.01 "Hg5 mi
2:50 AM70 °FPassing clouds.7 mph100%30.01 "Hg5 mi
1:50 AM72 °FPassing clouds.8 mph94%30.04 "Hg5 mi
12:50 AM72 °FPassing clouds.8 mph94%30.07 "Hg5 mi
11:50 PM
Fri, Feb 12
72 °FOvercast.9 mph94%30.07 "Hg5 mi
10:51 PM72 °FOvercast.7 mph94%30.07 "Hg5 mi
9:54 PM72 °FMostly cloudy.14 mph94%30.07 "Hg4 mi
8:51 PM72 °FLight rain. Mostly cloudy.8 mph94%30.07 "Hg4 mi
Weather by CustomWeather, © 2016

See weather overviewHow to use our weather pages